QPF
0.00 0.00 0.00 0.00 0.00 0.00 0.00 0.00 0.00 0.00 0.00 0.00 0.00 0.00 0.00 0.00 0.00 0.00 0.00 0.00 0.00 0.00 0.00 0.00 0.00 0.00 0.00 0.00 0.00 0.00 0.00 0.00 0.00 0.00 0.00 0.00 0.00 0.00 0.00 0.00 0.00 0.00 0.00 0.00 0.00 0.00 0.00 0.00 0.00
0.00 0.00 0.00 0.00 0.00 0.00 0.00 0.00 0.00 0.00 0.00 0.00 0.00 0.00 0.00 0.00 0.00 0.00 0.00 0.00 0.00 0.00 0.00 0.00 0.00 0.00 0.00 0.00 0.00 0.00 0.00 0.00 0.00 0.00 0.00 0.00 0.00 0.00 0.00 0.00 0.00 0.00 0.00 0.00 0.00 0.00 0.00 0.00 0.00
0.00 0.00 0.00 0.00 0.00 0.00 0.00 0.00 0.00 0.00 0.00 0.00 0.00 0.00 0.00 0.00 0.00 0.00 0.00 0.00 0.00 0.00 0.00 0.00 0.00 0.00 0.00 0.00 0.00 0.00 0.00 0.00 0.00 0.00 0.00 0.00 0.00 0.00 0.00 0.00 0.00 0.00 0.00 0.00 0.00 0.00 0.00 0.00 0.00
0.00 0.00 0.00 0.00 0.00 0.00 0.00 0.00 0.00 0.00 0.00 0.00 0.00 0.00 0.00 0.00 0.00 0.00 0.00 0.00 0.00 0.00 0.00 0.00 0.00 0.00 0.00 0.00 0.00 0.00 0.00 0.00 0.00 0.00 0.00 0.00 0.00 0.00 0.00 0.00 0.00 0.00 0.00 0.00 0.00 0.00 0.00 0.00 0.00
0.00 0.00 0.00 0.00 0.00 0.00 0.00 0.00 0.00 0.00 0.00 0.00 0.00 0.00 0.00 0.00 0.00 0.00 0.00 0.00 0.00 0.00 0.00 0.00 0.00 0.00 0.00 0.00 0.00 0.00 0.00 0.00 0.00 0.00 0.00 0.00 0.00 0.00 0.00 0.00 0.00 0.00 0.00 0.00 0.00 0.00 0.00 0.00 0.00
0.00 0.00 0.00 0.00 0.00 0.00 0.00 0.00 0.00 0.00 0.00 0.00 0.00 0.00 0.00 0.00 0.00 0.00 0.00 0.00 0.00 0.00 0.00 0.00 0.00 0.00 0.00 0.00 0.00 0.00 0.00 0.00 0.00 0.00 0.00 0.00 0.00 0.00 0.00 0.00 0.00 0.00 0.00 0.00 0.00 0.00 0.00 0.00 0.00
0.00 0.00 0.00 0.00 0.00 0.00 0.00 0.00 0.00 0.00 0.00 0.00 0.00 0.00 0.00 0.00 0.00 0.00 0.00 0.00 0.00 0.00 0.00 0.00 0.00 0.00 0.00 0.00 0.00 0.00 0.00 0.00 0.00 0.00 0.00 0.00 0.00 0.00 0.00 0.00 0.00 0.00 0.00 0.00 0.00 0.00 0.00 0.00 0.00
0.00 0.00 0.00 0.00 0.00 0.00 0.00 0.00 0.00 0.00 0.00 0.00 0.00 0.00 0.00 0.00 0.00 0.00 0.00 0.00 0.00 0.00 0.00 0.00 0.00 0.00 0.00 0.00 0.00 0.00 0.00 0.00 0.00 0.00 0.00 0.00 0.00 0.00 0.00 0.00 0.00 0.00 0.00 0.00 0.00 0.00 0.00 0.00 0.00
0.00 0.00 0.00 0.00 0.00 0.00 0.00 0.00 0.00 0.00 0.00 0.00 0.00 0.00 0.00 0.00 0.00 0.00 0.00 0.00 0.00 0.00 0.00 0.00 0.00 0.00 0.00 0.00 0.00 0.00 0.00 0.00 0.00 0.00 0.00 0.00 0.00 0.00 0.00 0.00 0.00 0.00 0.00 0.00 0.00 0.00 0.00 0.00 0.00
0.00 0.00 0.00 0.00 0.00 0.00 0.00 0.00 0.00 0.00 0.00 0.00 0.00 0.00 0.00 0.00 0.00 0.00 0.00 0.00 0.00 0.00 0.00 0.00 0.00 0.00 0.00 0.00 0.00 0.00 0.00 0.00 0.00 0.00 0.00 0.00 0.00 0.00 0.00 0.00 0.00 0.00 0.00 0.00 0.00 0.00 0.00 0.00 0.00
0.00 0.00 0.00 0.00 0.00 0.00 0.00 0.00 0.00 0.00 0.00 0.00 0.00 0.00 0.00 0.00 0.00 0.00 0.00 0.00 0.00 0.00 0.00 0.00 0.00 0.00 0.00 0.00 0.00 0.00 0.00 0.00 0.00 0.00 0.00 0.00 0.00 0.00 0.00 0.00 0.00 0.00 0.00 0.00 0.00 0.00 0.00 0.00 0.00
0.00 0.00 0.00 0.00 0.00 0.00 0.00 0.00 0.00 0.00 0.00 0.00 0.00 0.00 0.00 0.00 0.00 0.00 0.00 0.00 0.00 0.00 0.00 0.00 0.00 0.00 0.00 0.00 0.00 0.00 0.00 0.00 0.00 0.00 0.00 0.00 0.00 0.00 0.00 0.00 0.00 0.00 0.00 0.00 0.00 0.00 0.00 0.00 0.00
0.00 0.00 0.00 0.00 0.00 0.00 0.00 0.00 0.00 0.00 0.00 0.00 0.00 0.00 0.00 0.00 0.00 0.00 0.00 0.00 0.00 0.00 0.00 0.00 0.00 0.00 0.00 0.00 0.00 0.00 0.00 0.00 0.00 0.00 0.00 0.00 0.00 0.00 0.00 0.00 0.00 0.00 0.00 0.00 0.00 0.00 0.00 0.00 0.00
0.00 0.00 0.00 0.00 0.00 0.00 0.00 0.00 0.00 0.00 0.00 0.00 0.00 0.00 0.00 0.00 0.00 0.00 0.00 0.00 0.00 0.00 0.00 0.00 0.00 0.00 0.00 0.00 0.00 0.00 0.00 0.00 0.00 0.00 0.00 0.00 0.00 0.00 0.00 0.00 0.00 0.00 0.00 0.00 0.00 0.00 0.00 0.00 0.00
0.00 0.00 0.00 0.00 0.00 0.00 0.00 0.00 0.00 0.00 0.00 0.00 0.00 0.00 0.00 0.00 0.00 0.00 0.00 0.00 0.00 0.00 0.00 0.00 0.00 0.00 0.00 0.00 0.00 0.00 0.00 0.00 0.00 0.00 0.00 0.00 0.00 0.00 0.00 0.00 0.00 0.00 0.00 0.00 0.00 0.00 0.00 0.00 0.00
0.00 0.00 0.00 0.00 0.00 0.00 0.00 0.00 0.00 0.00 0.00 0.00 0.00 0.00 0.00 0.00 0.00 0.00 0.00 0.00 0.00 0.00 0.00 0.00 0.00 0.00 0.00 0.00 0.00 0.00 0.00 0.00 0.00 0.00 0.00 0.00 0.00 0.00 0.00 0.00 0.00 0.00 0.00 0.00 0.00 0.00 0.00 0.00 0.00
0.00 0.00 0.00 0.00 0.00 0.00 0.00 0.00 0.00 0.00 0.00 0.00 0.00 0.00 0.00 0.00 0.00 0.00 0.00 0.00 0.00 0.00 0.00 0.00 0.00 0.00 0.00 0.00 0.00 0.00 0.00 0.00 0.00 0.00 0.00 0.00 0.00 0.00 0.00 0.00 0.00 0.00 0.00 0.00 0.00 0.00 0.00 0.00 0.00
0.00 0.00 0.00 0.00 0.00 0.00 0.00 0.00 0.00 0.00 0.00 0.00 0.00 0.00 0.00 0.00 0.00 0.00 0.00 0.00 0.00 0.00 0.00 0.00 0.00 0.00 0.00 0.00 0.00 0.00 0.00 0.00 0.00 0.00 0.00 0.00 0.00 0.00 0.00 0.00 0.00 0.00 0.00 0.00 0.00 0.00 0.00 0.00 0.00
0.00 0.00 0.00 0.00 0.00 0.00 0.00 0.00 0.00 0.00 0.00 0.00 0.00 0.00 0.00 0.00 0.00 0.00 0.00 0.00 0.00 0.00 0.00 0.00 0.00 0.00 0.00 0.00 0.00 0.00 0.00 0.00 0.00 0.00 0.00 0.00 0.00 0.00 0.00 0.00 0.00 0.00 0.00 0.00 0.00 0.00 0.00 0.00 0.01
0.00 0.00 0.00 0.00 0.00 0.00 0.00 0.00 0.00 0.00 0.00 0.00 0.00 0.00 0.00 0.00 0.00 0.00 0.00 0.00 0.00 0.00 0.00 0.00 0.00 0.00 0.00 0.00 0.00 0.00 0.00 0.00 0.00 0.00 0.00 0.00 0.00 0.00 0.00 0.00 0.00 0.00 0.00 0.00 0.00 0.00 0.01 0.01 0.03
0.00 0.00 0.00 0.00 0.00 0.00 0.00 0.00 0.00 0.00 0.00 0.00 0.00 0.00 0.00 0.00 0.00 0.00 0.00 0.00 0.00 0.00 0.00 0.00 0.00 0.00 0.00 0.00 0.00 0.00 0.00 0.00 0.00 0.00 0.00 0.00 0.00 0.00 0.00 0.00 0.01 0.01 0.01 0.02 0.04 0.06 0.04 0.03 0.03
0.00 0.00 0.00 0.00 0.00 0.00 0.00 0.00 0.00 0.00 0.00 0.00 0.00 0.00 0.00 0.00 0.00 0.00 0.00 0.00 0.00 0.00 0.00 0.00 0.00 0.00 0.00 0.00 0.00 0.00 0.00 0.00 0.00 0.00 0.00 0.00 0.00 0.00 0.00 0.00 0.00 0.00 0.00 0.03 0.07 0.04 0.02 0.03 0.02
0.00 0.00 0.00 0.00 0.00 0.00 0.00 0.00 0.00 0.00 0.00 0.00 0.00 0.00 0.00 0.00 0.00 0.00 0.00 0.00 0.00 0.00 0.00 0.00 0.00 0.00 0.00 0.00 0.00 0.00 0.00 0.00 0.00 0.00 0.00 0.00 0.00 0.00 0.01 0.02 0.00 0.00 0.00 0.01 0.03 0.02 0.00 0.00 0.01
0.00 0.00 0.00 0.00 0.00 0.00 0.00 0.00 0.00 0.00 0.00 0.00 0.00 0.00 0.00 0.00 0.00 0.00 0.00 0.00 0.00 0.00 0.00 0.00 0.00 0.00 0.00 0.00 0.00 0.00 0.01 0.02 0.02 0.01 0.01 0.00 0.00 0.00 0.01 0.01 0.00 0.00 0.00 0.00 0.00 0.01 0.00 0.00 0.02
0.00 0.00 0.00 0.00 0.00 0.00 0.00 0.00 0.00 0.00 0.00 0.00 0.00 0.00 0.00 0.00 0.00 0.00 0.00 0.00 0.00 0.00 0.00 0.00 0.00 0.00 0.00 0.00 0.00 0.00 0.03 0.04 0.02 0.01 0.01 0.00 0.00 0.00 0.01 0.00 0.00 0.00 0.00 0.00 0.00 0.01 0.00 0.00 0.00
0.00 0.00 0.00 0.00 0.00 0.00 0.00 0.00 0.00 0.00 0.00 0.00 0.00 0.00 0.00 0.00 0.00 0.00 0.00 0.00 0.00 0.00 0.00 0.00 0.00 0.00 0.00 0.00 0.00 0.00 0.02 0.02 0.01 0.01 0.00 0.00 0.00 0.00 0.00 0.00 0.00 0.00 0.00 0.00 0.00 0.00 0.00 0.00 0.00
0.00 0.00 0.00 0.00 0.00 0.00 0.00 0.00 0.00 0.00 0.00 0.00 0.00 0.00 0.00 0.00 0.00 0.00 0.00 0.00 0.00 0.00 0.00 0.00 0.00 0.00 0.00 0.00 0.00 0.00 0.00 0.00 0.00 0.00 0.00 0.00 0.00 0.00 0.00 0.00 0.00 0.00 0.00 0.00 0.00 0.00 0.00 0.00 0.00
0.00 0.00 0.00 0.00 0.00 0.00 0.00 0.00 0.00 0.00 0.00 0.00 0.00 0.00 0.00 0.00 0.00 0.00 0.00 0.00 0.00 0.00 0.00 0.00 0.00 0.00 0.00 0.00 0.00 0.00 0.00 0.00 0.00 0.00 0.00 0.00 0.00 0.00 0.00 0.00 0.00 0.00 0.00 0.00 0.00 0.00 0.01 0.03 0.03
0.00 0.00 0.00 0.00 0.00 0.00 0.00 0.00 0.00 0.00 0.00 0.00 0.00 0.00 0.00 0.00 0.00 0.00 0.00 0.00 0.00 0.00 0.01 0.02 0.01 0.01 0.01 0.01 0.01 0.00 0.00 0.00 0.00 0.00 0.00 0.00 0.00 0.00 0.00 0.00 0.01 0.01 0.01 0.01 0.01 0.00 0.00 0.01 0.01
0.00 0.00 0.00 0.00 0.00 0.00 0.00 0.00 0.00 0.00 0.00 0.00 0.00 0.00 0.00 0.00 0.00 0.00 0.00 0.00 0.00 0.00 0.02 0.03 0.02 0.02 0.01 0.01 0.01 0.00 0.00 0.00 0.00 0.00 0.00 0.00 0.00 0.00 0.00 0.00 0.00 0.02 0.01 0.01 0.00 0.00 0.00 0.00 0.00
MSLP
1009.86 1009.33 1008.96 1008.43 1008.67 1008.05 1007.45 1007.60 1007.46 1006.84 1006.47 1006.45 1006.42 1006.05 1005.77 1005.61 1005.32 1005.91 1006.91 1007.24 1007.76 1008.76 1009.31 1009.99 1010.52 1010.77 1011.14 1011.27 1011.23 1011.35 1011.62 1011.91 1012.15 1012.33 1012.55 1012.87 1013.31 1013.69 1013.93 1014.11 1014.44 1014.69 1015.01 1015.20 1015.43 1015.46 1015.63 1015.65 1015.78
1010.05 1009.30 1008.89 1008.76 1008.46 1007.93 1007.75 1007.89 1007.45 1007.09 1006.88 1006.66 1006.29 1006.08 1005.84 1005.61 1005.80 1006.29 1006.82 1007.46 1007.68 1008.25 1009.27 1009.72 1010.51 1010.77 1010.97 1011.29 1011.39 1011.46 1011.65 1011.87 1012.11 1012.41 1012.67 1012.99 1013.35 1013.76 1014.09 1014.37 1014.64 1014.91 1015.14 1015.31 1015.46 1015.58 1015.65 1015.74 1015.81
1010.07 1010.06 1009.47 1009.27 1008.85 1008.23 1007.93 1008.11 1007.73 1007.09 1006.60 1006.38 1006.06 1006.03 1005.93 1005.84 1005.99 1006.09 1006.64 1007.50 1007.95 1008.65 1009.13 1009.85 1010.43 1010.74 1010.94 1011.21 1011.49 1011.71 1011.85 1012.13 1012.14 1012.28 1012.49 1012.90 1013.29 1013.65 1014.01 1014.51 1014.78 1014.93 1015.16 1015.37 1015.47 1015.65 1015.80 1015.94 1016.04
1010.16 1010.13 1010.74 1009.93 1009.08 1009.10 1008.72 1008.48 1007.92 1007.12 1006.41 1006.35 1006.33 1005.97 1006.01 1006.18 1006.24 1006.51 1007.02 1007.53 1007.99 1008.81 1009.34 1010.07 1010.51 1010.94 1011.11 1011.29 1011.68 1011.94 1012.22 1012.19 1012.41 1012.71 1012.82 1012.85 1013.12 1013.51 1013.92 1014.38 1014.73 1014.92 1015.08 1015.25 1015.45 1015.68 1015.89 1016.01 1016.13
1010.64 1010.47 1010.22 1010.06 1009.70 1009.46 1009.15 1008.99 1008.43 1007.48 1006.99 1006.61 1006.41 1006.32 1006.05 1006.11 1006.72 1006.94 1007.34 1007.61 1007.82 1008.68 1009.25 1010.01 1010.71 1011.03 1011.37 1011.59 1011.75 1012.10 1012.51 1012.75 1012.69 1012.63 1013.09 1013.36 1013.45 1013.61 1013.85 1014.18 1014.51 1014.66 1014.93 1015.12 1015.34 1015.55 1015.72 1015.95 1016.10
1010.51 1010.89 1010.31 1010.08 1009.99 1009.71 1009.35 1008.97 1008.48 1007.99 1007.64 1007.12 1006.67 1006.56 1006.19 1006.27 1006.77 1007.22 1007.37 1007.81 1008.19 1008.55 1009.16 1009.81 1010.63 1011.13 1011.43 1011.70 1011.97 1012.14 1012.53 1012.91 1013.19 1013.15 1012.98 1013.29 1013.61 1013.89 1014.08 1014.29 1014.55 1014.79 1015.01 1015.21 1015.33 1015.53 1015.73 1015.94 1016.14
1010.46 1010.88 1010.50 1010.44 1010.11 1009.83 1009.44 1009.10 1008.76 1008.45 1007.98 1007.43 1007.32 1006.78 1006.29 1006.18 1006.97 1007.55 1007.73 1007.89 1008.32 1008.84 1009.12 1009.61 1010.28 1010.79 1011.32 1011.75 1011.99 1012.25 1012.59 1012.93 1013.33 1013.57 1013.57 1013.51 1013.55 1013.81 1014.17 1014.53 1014.71 1014.93 1015.14 1015.31 1015.50 1015.72 1015.88 1015.97 1016.08
1011.09 1011.26 1011.15 1010.59 1010.11 1009.68 1009.63 1009.35 1009.23 1008.89 1008.28 1008.21 1007.75 1006.93 1006.63 1006.65 1007.40 1007.91 1008.09 1008.22 1008.31 1008.75 1009.03 1009.45 1009.91 1010.51 1011.01 1011.48 1012.06 1012.22 1012.53 1012.96 1013.16 1013.65 1013.75 1013.75 1013.85 1013.84 1014.19 1014.54 1014.82 1015.01 1015.19 1015.35 1015.56 1015.75 1015.87 1015.94 1016.04
1011.73 1011.51 1010.95 1010.49 1010.24 1009.71 1009.78 1009.55 1009.30 1009.18 1008.73 1008.48 1008.04 1007.43 1007.21 1007.11 1007.43 1007.53 1008.20 1008.27 1008.24 1008.53 1008.96 1009.20 1009.69 1010.25 1010.71 1011.13 1011.77 1012.28 1012.47 1012.87 1013.17 1013.36 1013.83 1014.00 1013.69 1013.93 1014.11 1014.17 1014.59 1015.05 1015.26 1015.37 1015.57 1015.75 1015.83 1015.93 1016.01
1011.29 1011.15 1010.48 1010.55 1009.93 1009.60 1009.83 1009.94 1009.57 1009.27 1008.60 1008.29 1008.11 1007.61 1007.39 1007.11 1007.33 1007.23 1007.46 1007.82 1007.95 1008.06 1008.63 1009.24 1009.50 1009.92 1010.32 1010.86 1011.30 1011.76 1012.11 1012.49 1012.83 1013.04 1013.34 1013.53 1013.71 1013.94 1014.04 1014.30 1014.72 1014.91 1015.18 1015.39 1015.57 1015.73 1015.83 1015.91 1015.32
1011.57 1010.96 1010.76 1010.33 1010.08 1010.15 1009.82 1009.77 1009.43 1008.93 1008.33 1008.01 1007.85 1007.38 1006.88 1006.81 1007.02 1007.45 1007.13 1007.32 1007.71 1008.14 1008.63 1008.83 1009.60 1009.76 1010.15 1010.36 1011.05 1011.39 1011.60 1011.91 1012.41 1012.71 1013.16 1013.37 1013.47 1013.80 1014.08 1014.16 1014.51 1014.74 1015.05 1014.92 1015.20 1015.33 1015.30 1015.11 1015.12
1011.23 1010.73 1010.41 1009.97 1009.91 1009.74 1009.51 1009.13 1008.75 1008.54 1007.95 1007.56 1007.67 1007.49 1007.15 1006.61 1006.49 1006.68 1006.78 1006.95 1007.51 1007.91 1008.36 1008.86 1009.23 1009.67 1010.02 1009.81 1010.34 1010.91 1011.17 1011.43 1011.65 1012.12 1012.67 1013.02 1013.29 1013.41 1013.68 1013.92 1014.17 1014.58 1014.72 1014.90 1015.11 1014.90 1014.95 1015.00 1014.87
1010.83 1010.39 1010.21 1009.95 1009.75 1009.51 1009.54 1008.92 1008.69 1008.27 1007.83 1007.47 1007.33 1007.47 1006.86 1006.57 1006.38 1006.40 1006.81 1006.99 1007.24 1007.46 1007.85 1008.24 1008.83 1008.99 1009.51 1009.88 1009.84 1010.11 1010.77 1011.16 1011.23 1011.69 1012.12 1012.64 1012.86 1013.01 1013.31 1013.64 1013.98 1014.15 1014.37 1014.68 1014.90 1015.00 1014.86 1014.82 1014.68
1010.39 1010.33 1009.99 1009.63 1009.34 1009.23 1009.06 1008.53 1008.56 1007.81 1007.49 1007.20 1007.11 1006.87 1007.01 1006.75 1006.45 1006.51 1006.75 1006.66 1007.02 1007.14 1007.27 1007.77 1008.19 1008.57 1009.01 1009.30 1009.50 1009.79 1010.11 1010.50 1011.10 1011.17 1011.63 1012.27 1012.78 1012.81 1012.95 1013.45 1013.66 1013.85 1013.98 1014.22 1014.55 1014.67 1014.84 1014.75 1014.67
1010.62 1010.35 1009.94 1009.35 1008.86 1008.58 1008.46 1008.06 1007.73 1007.33 1007.46 1007.18 1007.03 1007.01 1006.94 1006.95 1006.71 1006.39 1006.32 1006.47 1006.83 1006.67 1006.85 1007.19 1007.66 1008.22 1008.57 1008.69 1008.89 1009.21 1009.33 1009.90 1010.41 1010.70 1011.36 1011.87 1012.34 1012.67 1012.79 1013.05 1013.25 1013.57 1014.13 1014.25 1014.39 1014.47 1014.70 1014.73 1014.73
1010.49 1010.41 1009.54 1008.89 1008.78 1008.42 1008.43 1007.32 1007.35 1007.21 1007.40 1007.18 1007.09 1006.89 1006.86 1006.71 1006.87 1006.62 1006.28 1006.34 1006.30 1006.49 1006.52 1006.84 1007.31 1007.66 1007.94 1008.15 1008.40 1008.53 1008.96 1009.19 1009.80 1010.29 1010.85 1011.40 1011.42 1011.72 1012.26 1012.61 1012.73 1013.03 1013.65 1013.89 1014.17 1014.41 1014.41 1014.38 1014.35
1010.63 1009.78 1009.76 1009.05 1008.88 1008.68 1008.47 1007.61 1007.10 1007.08 1007.35 1007.01 1006.75 1006.57 1006.47 1006.49 1006.38 1006.36 1006.43 1006.40 1006.11 1006.07 1006.05 1006.18 1006.58 1006.71 1006.92 1007.43 1007.79 1008.14 1008.48 1008.84 1009.19 1009.89 1010.23 1010.41 1010.73 1010.98 1010.58 1011.16 1011.77 1012.48 1013.14 1013.29 1013.62 1014.14 1014.42 1014.11 1014.20
1009.99 1009.98 1009.76 1009.35 1008.92 1008.69 1008.17 1007.52 1007.29 1006.81 1006.66 1006.51 1006.51 1006.39 1006.17 1006.00 1005.76 1005.96 1006.04 1006.22 1006.13 1005.84 1005.75 1005.79 1006.00 1006.37 1006.84 1007.43 1007.94 1008.13 1008.16 1008.34 1008.64 1009.16 1009.16 1009.56 1009.75 1010.33 1010.75 1011.14 1011.63 1012.13 1012.76 1012.63 1013.03 1013.55 1014.00 1014.30 1013.84
1010.20 1010.08 1009.66 1009.24 1008.82 1008.77 1007.69 1007.39 1006.96 1006.63 1006.45 1006.05 1005.85 1005.74 1005.76 1005.60 1005.36 1005.45 1005.37 1005.58 1005.87 1005.79 1005.43 1005.27 1005.62 1005.73 1006.27 1006.49 1006.86 1007.34 1007.27 1007.59 1007.99 1008.27 1008.59 1008.96 1009.12 1009.49 1010.11 1010.51 1011.43 1011.82 1012.42 1012.49 1012.59 1013.28 1013.59 1013.73 1014.10
1010.05 1009.71 1009.26 1008.82 1008.48 1008.61 1007.51 1007.05 1006.57 1006.31 1006.06 1005.85 1005.67 1005.40 1005.25 1005.19 1005.07 1004.91 1004.86 1004.79 1004.81 1004.88 1004.95 1004.96 1004.99 1005.31 1005.69 1005.80 1005.93 1006.16 1006.38 1006.54 1007.09 1007.66 1008.10 1008.21 1008.70 1009.03 1009.51 1009.95 1010.62 1011.88 1011.90 1011.98 1012.45 1012.71 1012.93 1013.74 1013.82
1009.39 1009.17 1008.81 1008.49 1008.15 1008.04 1007.51 1006.49 1006.10 1005.82 1005.80 1005.43 1005.24 1005.09 1005.11 1004.99 1004.95 1005.03 1004.95 1004.92 1004.57 1004.38 1004.44 1004.51 1004.39 1004.45 1004.75 1005.14 1005.75 1006.20 1006.35 1006.69 1006.71 1006.86 1007.00 1007.05 1007.62 1008.17 1008.52 1008.93 1009.13 1010.58 1011.19 1011.09 1012.51 1012.76 1013.74 1013.98 1013.33
1008.55 1008.25 1008.46 1008.36 1008.22 1007.43 1007.77 1005.97 1005.58 1005.43 1005.19 1005.08 1004.81 1004.63 1004.98 1005.28 1005.43 1005.39 1005.14 1004.86 1004.73 1004.41 1004.29 1004.30 1004.21 1004.07 1004.24 1004.57 1004.84 1005.05 1004.75 1004.92 1004.86 1004.98 1005.37 1006.06 1007.03 1007.58 1008.05 1008.32 1008.81 1009.72 1010.00 1009.81 1011.16 1012.37 1013.12 1012.88 1012.94
1007.74 1008.02 1008.11 1008.19 1007.96 1007.90 1007.23 1006.55 1005.11 1005.40 1004.82 1004.62 1004.53 1005.05 1005.47 1005.78 1005.92 1005.75 1005.50 1005.15 1004.68 1004.56 1004.27 1004.09 1004.03 1004.03 1003.85 1003.85 1003.88 1004.06 1004.19 1004.06 1004.15 1004.65 1005.08 1005.50 1006.27 1006.98 1007.47 1007.96 1008.35 1008.65 1008.86 1009.16 1009.96 1010.60 1010.32 1010.72 1011.86
1007.68 1007.83 1008.06 1008.47 1008.10 1007.13 1006.56 1006.25 1004.62 1004.66 1004.59 1004.74 1004.91 1005.42 1005.92 1005.98 1005.91 1005.83 1005.60 1005.11 1004.52 1004.14 1004.01 1003.88 1003.74 1003.42 1003.55 1003.53 1003.35 1003.47 1003.54 1003.90 1004.39 1004.27 1004.68 1005.07 1005.70 1006.46 1007.02 1007.51 1007.90 1008.43 1008.67 1008.94 1009.38 1009.43 1009.61 1009.76 1010.42
1007.51 1007.86 1007.42 1007.21 1007.01 1005.93 1006.27 1006.04 1005.03 1004.89 1004.76 1004.84 1005.40 1005.75 1006.06 1006.11 1005.91 1005.79 1005.35 1004.82 1004.49 1004.01 1003.68 1003.49 1003.30 1002.92 1002.91 1002.92 1002.85 1002.82 1003.04 1003.52 1003.81 1004.07 1004.19 1004.61 1005.13 1005.61 1006.26 1006.97 1007.43 1007.64 1008.01 1008.23 1008.55 1008.79 1009.12 1009.61 1010.24
1006.73 1007.22 1007.14 1006.37 1006.37 1006.11 1006.41 1005.07 1004.59 1005.01 1005.13 1005.57 1005.87 1006.20 1006.10 1005.78 1005.63 1005.53 1005.26 1004.95 1004.41 1003.87 1003.49 1003.21 1002.93 1002.55 1002.52 1002.55 1002.32 1002.71 1002.95 1003.34 1003.40 1003.61 1003.95 1004.36 1004.65 1004.95 1005.59 1006.12 1006.52 1006.85 1007.29 1007.75 1008.05 1008.40 1008.77 1009.36 1009.85
1006.91 1007.25 1007.52 1007.44 1007.39 1007.02 1006.02 1005.22 1005.30 1005.05 1005.27 1005.69 1005.74 1005.75 1005.78 1005.84 1005.59 1004.99 1004.56 1004.39 1004.11 1003.82 1003.42 1003.17 1002.83 1002.55 1002.21 1002.35 1002.21 1002.30 1002.60 1003.15 1003.39 1003.29 1003.67 1004.07 1004.54 1004.95 1005.43 1005.79 1006.11 1006.48 1006.72 1006.94 1007.39 1007.63 1008.13 1008.43 1008.75
1007.18 1007.42 1008.02 1008.25 1007.63 1006.69 1005.41 1005.26 1004.87 1005.01 1005.33 1005.58 1005.75 1005.92 1005.77 1005.83 1005.87 1005.66 1005.10 1004.47 1003.82 1003.70 1003.43 1003.03 1002.68 1002.50 1002.07 1002.11 1001.96 1002.14 1002.42 1002.87 1003.44 1003.74 1003.70 1004.07 1004.44 1004.86 1005.25 1005.54 1005.79 1006.12 1006.31 1006.41 1006.68 1006.88 1007.15 1007.57 1007.89
1007.59 1007.73 1008.49 1009.00 1008.85 1008.03 1006.27 1005.27 1005.53 1005.39 1005.62 1006.01 1006.01 1006.50 1006.66 1006.65 1006.38 1006.01 1005.37 1004.74 1004.07 1003.59 1003.29 1003.00 1002.67 1002.45 1002.33 1002.30 1002.29 1002.52 1002.78 1003.06 1003.58 1003.73 1003.65 1003.85 1004.29 1004.43 1004.66 1005.07 1005.44 1005.68 1006.01 1006.35 1006.59 1006.68 1006.77 1007.00 1007.51
1008.01 1007.89 1008.28 1008.65 1009.05 1008.93 1008.02 1005.70 1005.76 1005.75 1006.05 1006.55 1006.60 1006.83 1006.94 1006.85 1006.52 1006.07 1005.65 1005.21 1004.53 1003.87 1003.44 1002.85 1002.59 1002.76 1002.80 1002.74 1002.33 1002.27 1002.83 1003.37 1003.61 1003.47 1003.49 1003.71 1003.83 1003.98 1004.26 1004.73 1005.09 1005.61 1005.85 1006.23 1006.33 1006.50 1006.70 1006.91 1007.34
Thickness
5785 5791 5797 5794 5767 5767 5760 5765 5781 5785 5791 5805 5808 5810 5809 5815 5812 5805 5837 5841 5841 5833 5828 5823 5820 5819 5816 5815 5815 5814 5813 5811 5809 5807 5806 5802 5799 5796 5793 5791 5787 5783 5779 5777 5775 5775 5772 5772 5771
5779 5787 5787 5774 5755 5747 5754 5766 5769 5783 5792 5802 5805 5809 5808 5805 5825 5826 5829 5836 5839 5836 5827 5823 5818 5816 5816 5814 5813 5813 5811 5810 5809 5807 5805 5803 5800 5795 5791 5788 5785 5781 5779 5777 5775 5773 5773 5771 5770
5774 5775 5764 5753 5744 5747 5749 5761 5769 5785 5797 5798 5801 5811 5808 5808 5824 5830 5837 5833 5833 5829 5827 5821 5816 5814 5813 5812 5811 5810 5809 5806 5807 5807 5806 5803 5800 5796 5793 5787 5784 5782 5778 5776 5775 5773 5771 5769 5768
5762 5761 5749 5738 5740 5745 5750 5757 5769 5778 5796 5799 5798 5794 5812 5822 5821 5829 5832 5832 5828 5822 5820 5816 5814 5810 5810 5810 5808 5807 5804 5805 5803 5801 5801 5802 5800 5798 5794 5788 5784 5782 5780 5778 5775 5772 5769 5768 5767
5751 5745 5729 5726 5732 5740 5750 5754 5764 5768 5776 5786 5792 5784 5797 5817 5820 5823 5821 5823 5823 5819 5814 5811 5808 5807 5804 5804 5805 5803 5801 5799 5801 5801 5797 5795 5795 5795 5793 5790 5786 5784 5782 5779 5777 5774 5771 5769 5767
5731 5731 5717 5717 5726 5737 5745 5752 5758 5761 5765 5775 5779 5779 5791 5814 5812 5812 5817 5815 5816 5814 5811 5807 5803 5801 5800 5799 5798 5799 5798 5795 5793 5795 5797 5795 5792 5789 5788 5786 5783 5781 5779 5777 5776 5773 5770 5768 5765
5722 5715 5711 5713 5720 5728 5738 5751 5746 5749 5756 5760 5775 5768 5790 5803 5806 5806 5808 5811 5810 5808 5807 5804 5801 5799 5796 5795 5794 5793 5792 5791 5789 5788 5788 5790 5791 5788 5785 5781 5779 5777 5775 5773 5772 5769 5766 5765 5764
5714 5711 5697 5710 5715 5721 5737 5742 5743 5740 5744 5763 5769 5759 5770 5790 5797 5797 5799 5803 5805 5804 5804 5801 5799 5796 5794 5791 5789 5789 5787 5785 5785 5783 5783 5784 5784 5785 5782 5778 5775 5774 5772 5771 5769 5766 5764 5763 5762
5706 5693 5692 5703 5705 5721 5728 5726 5738 5742 5740 5746 5757 5764 5781 5789 5792 5793 5789 5792 5796 5797 5798 5800 5797 5793 5791 5788 5784 5782 5783 5781 5780 5780 5777 5777 5780 5778 5777 5777 5773 5770 5768 5767 5765 5763 5762 5760 5759
5698 5690 5697 5706 5714 5715 5720 5717 5724 5725 5731 5736 5741 5761 5773 5780 5779 5781 5783 5782 5786 5792 5793 5793 5795 5792 5788 5784 5782 5781 5779 5777 5776 5776 5775 5775 5774 5773 5772 5771 5768 5766 5765 5763 5762 5760 5759 5758 5760
5687 5689 5694 5702 5710 5711 5713 5714 5721 5721 5722 5734 5733 5744 5761 5767 5768 5768 5777 5780 5778 5781 5785 5787 5783 5784 5783 5782 5777 5776 5776 5776 5774 5774 5771 5770 5771 5769 5767 5767 5764 5762 5761 5761 5759 5759 5759 5760 5759
5682 5692 5696 5704 5708 5708 5708 5718 5716 5720 5728 5741 5741 5742 5749 5756 5764 5767 5769 5773 5773 5774 5774 5778 5778 5776 5775 5778 5775 5772 5771 5772 5773 5771 5769 5767 5766 5766 5765 5763 5762 5759 5758 5756 5754 5757 5758 5758 5759
5679 5687 5693 5698 5700 5704 5703 5707 5710 5714 5727 5735 5738 5737 5740 5747 5755 5761 5761 5763 5767 5768 5771 5772 5773 5775 5771 5768 5770 5769 5765 5763 5765 5764 5764 5762 5761 5761 5759 5758 5756 5756 5755 5752 5751 5750 5752 5753 5754
5682 5682 5688 5693 5696 5698 5697 5705 5705 5715 5724 5728 5729 5734 5733 5734 5743 5749 5751 5754 5756 5761 5765 5767 5767 5769 5766 5763 5764 5763 5761 5759 5756 5758 5756 5753 5751 5753 5751 5749 5750 5750 5751 5749 5747 5746 5747 5747 5748
5674 5672 5680 5687 5694 5696 5698 5697 5699 5716 5714 5715 5719 5722 5726 5729 5732 5736 5746 5747 5749 5755 5758 5760 5760 5759 5758 5758 5758 5757 5756 5752 5752 5751 5748 5746 5745 5743 5744 5742 5742 5742 5738 5739 5739 5740 5739 5741 5741
5665 5664 5665 5682 5684 5690 5689 5688 5699 5706 5703 5704 5709 5714 5716 5721 5724 5727 5733 5736 5743 5745 5749 5751 5752 5754 5753 5752 5751 5751 5749 5749 5746 5743 5742 5742 5739 5735 5734 5734 5733 5732 5731 5731 5731 5732 5734 5736 5738
5649 5655 5652 5667 5677 5676 5676 5676 5696 5701 5695 5697 5703 5708 5712 5715 5719 5723 5724 5727 5734 5738 5742 5745 5746 5748 5751 5750 5748 5746 5744 5742 5741 5736 5737 5736 5733 5731 5737 5733 5729 5724 5722 5724 5725 5723 5723 5728 5727
5644 5645 5649 5651 5666 5665 5666 5671 5679 5693 5691 5692 5695 5699 5706 5710 5716 5718 5720 5722 5724 5729 5734 5737 5739 5738 5737 5735 5735 5736 5736 5736 5734 5733 5734 5731 5730 5726 5723 5724 5724 5717 5714 5717 5714 5714 5715 5715 5721
5645 5641 5641 5652 5661 5650 5664 5662 5671 5680 5681 5690 5695 5696 5697 5703 5713 5716 5719 5718 5717 5718 5722 5728 5728 5731 5728 5727 5726 5727 5730 5729 5728 5728 5725 5723 5724 5723 5720 5716 5712 5710 5705 5705 5709 5707 5704 5707 5706
5638 5637 5641 5652 5655 5645 5661 5657 5672 5675 5677 5682 5685 5690 5693 5697 5702 5706 5711 5713 5715 5716 5718 5720 5720 5721 5721 5721 5723 5724 5725 5727 5723 5718 5716 5715 5714 5713 5713 5712 5708 5698 5697 5699 5700 5700 5700 5696 5698
5635 5634 5637 5642 5651 5648 5647 5652 5664 5674 5669 5675 5680 5683 5684 5684 5687 5689 5693 5697 5703 5706 5708 5709 5712 5713 5713 5713 5709 5709 5712 5711 5712 5713 5712 5714 5710 5708 5709 5708 5710 5696 5695 5697 5686 5687 5680 5678 5689
5627 5644 5636 5635 5632 5631 5637 5624 5656 5661 5661 5665 5673 5676 5672 5670 5671 5674 5679 5684 5688 5694 5698 5700 5701 5703 5704 5703 5699 5699 5705 5707 5714 5715 5714 5709 5703 5698 5699 5701 5698 5695 5692 5694 5688 5682 5677 5677 5681
5634 5636 5632 5629 5625 5615 5631 5619 5640 5647 5653 5661 5665 5659 5655 5653 5653 5657 5663 5669 5676 5678 5683 5688 5689 5689 5692 5694 5696 5696 5695 5702 5707 5704 5700 5700 5695 5691 5689 5690 5689 5690 5693 5691 5688 5685 5688 5687 5677
5634 5626 5620 5607 5611 5604 5627 5619 5631 5640 5648 5646 5651 5645 5641 5641 5642 5644 5649 5656 5663 5669 5671 5673 5676 5681 5681 5682 5685 5686 5688 5687 5684 5689 5689 5688 5685 5681 5680 5678 5678 5678 5679 5679 5677 5680 5683 5688 5682
5620 5609 5600 5600 5604 5608 5618 5603 5619 5633 5638 5639 5631 5630 5630 5631 5632 5631 5635 5642 5648 5653 5657 5661 5664 5670 5672 5673 5676 5678 5678 5676 5674 5674 5677 5676 5674 5673 5671 5669 5668 5669 5670 5672 5674 5673 5675 5675 5673
5618 5615 5604 5589 5596 5605 5611 5599 5618 5626 5627 5619 5615 5613 5615 5618 5624 5625 5627 5629 5634 5640 5644 5648 5651 5657 5659 5661 5666 5664 5663 5661 5664 5664 5664 5664 5664 5665 5664 5663 5664 5665 5664 5664 5665 5664 5666 5665 5662
5611 5603 5611 5595 5595 5577 5598 5607 5608 5617 5612 5608 5605 5603 5601 5602 5607 5616 5621 5621 5622 5624 5627 5629 5633 5637 5644 5646 5651 5651 5650 5647 5648 5652 5652 5652 5651 5651 5651 5653 5655 5655 5656 5657 5658 5659 5656 5657 5660
5605 5606 5589 5588 5568 5571 5598 5591 5590 5597 5597 5595 5590 5587 5590 5587 5586 5588 5591 5598 5607 5607 5608 5611 5614 5617 5626 5631 5637 5637 5636 5634 5631 5633 5636 5637 5638 5639 5640 5640 5642 5643 5645 5647 5648 5651 5653 5653 5656
5592 5587 5578 5574 5569 5559 5570 5586 5589 5589 5586 5576 5576 5573 5568 5565 5566 5567 5571 5575 5579 5580 5586 5591 5594 5598 5604 5611 5615 5616 5617 5617 5617 5618 5622 5624 5626 5630 5633 5632 5631 5631 5632 5634 5634 5638 5643 5645 5645
5580 5581 5578 5563 5554 5551 5547 5564 5590 5586 5574 5561 5562 5556 5553 5552 5554 5556 5556 5557 5560 5563 5568 5577 5582 5583 5581 5587 5596 5603 5599 5599 5601 5606 5610 5613 5615 5620 5622 5622 5621 5617 5619 5620 5623 5625 5629 5631 5631